TimeMDT,TemperatureF,Dew PointF,Humidity,Sea Level PressureIn,VisibilityMPH,Wind Direction,Wind SpeedMPH,Gust SpeedMPH,PrecipitationIn,Events,Conditions,WindDirDegrees,DateUTC
12:53 AM,52.0,42.1,69,29.92,10.0,NNE,6.9,-,N/A,,Clear,20,2013-05-25 06:53:00
1:53 AM,52.0,42.1,69,29.91,10.0,NNE,9.2,-,N/A,,Clear,30,2013-05-25 07:53:00
2:53 AM,50.0,43.0,77,29.90,10.0,NE,8.1,-,N/A,,Clear,50,2013-05-25 08:53:00
3:53 AM,53.1,42.1,66,29.90,10.0,Calm,Calm,-,N/A,,Clear,0,2013-05-25 09:53:00
4:53 AM,48.9,42.1,77,29.91,10.0,NNE,8.1,-,N/A,,Partly Cloudy,20,2013-05-25 10:53:00
5:53 AM,50.0,43.0,77,29.91,10.0,NNE,6.9,-,N/A,,Clear,30,2013-05-25 11:53:00
6:53 AM,55.0,45.0,69,29.90,10.0,Calm,Calm,-,N/A,,Clear,0,2013-05-25 12:53:00
7:53 AM,57.9,46.9,67,29.91,10.0,SW,3.5,-,N/A,,Clear,230,2013-05-25 13:53:00
8:53 AM,63.0,48.9,60,29.88,10.0,SSE,9.2,-,N/A,,Clear,150,2013-05-25 14:53:00
9:53 AM,66.9,52.0,59,29.86,10.0,SE,10.4,-,N/A,,Clear,140,2013-05-25 15:53:00
10:53 AM,72.0,54.0,53,29.83,10.0,ESE,6.9,-,N/A,,Clear,120,2013-05-25 16:53:00
11:53 AM,75.9,53.1,45,29.80,10.0,SE,4.6,-,N/A,,Clear,140,2013-05-25 17:53:00
12:53 PM,79.0,53.1,40,29.80,10.0,Variable,4.6,-,N/A,,Clear,0,2013-05-25 18:53:00
1:53 PM,80.1,54.0,40,29.78,10.0,ESE,10.4,17.3,N/A,,Scattered Clouds,120,2013-05-25 19:53:00
2:53 PM,81.0,53.1,38,29.77,10.0,SE,6.9,-,N/A,,Clear,130,2013-05-25 20:53:00
3:53 PM,81.0,54.0,39,29.75,10.0,ESE,12.7,20.7,N/A,,Partly Cloudy,110,2013-05-25 21:53:00
4:53 PM,81.0,54.0,39,29.73,10.0,East,8.1,-,N/A,,Clear,100,2013-05-25 22:53:00
5:53 PM,80.1,53.1,39,29.73,10.0,ESE,11.5,-,N/A,,Clear,110,2013-05-25 23:53:00
6:45 PM,71.6,51.8,50,29.79,10.0,ESE,16.1,27.6,0.00,Rain-Thunderstorm,Light Rain,120,2013-05-26 00:45:00
6:53 PM,71.1,51.1,49,29.75,10.0,ESE,19.6,25.3,0.00,Rain-Thunderstorm,Light Rain,110,2013-05-26 00:53:00
7:22 PM,75.2,37.4,25,29.72,10.0,ENE,10.4,20.7,0.00,,Mostly Cloudy,70,2013-05-26 01:22:00
7:53 PM,70.0,46.9,44,29.73,10.0,SE,10.4,-,0.00,,Partly Cloudy,130,2013-05-26 01:53:00
8:53 PM,69.1,48.9,49,29.75,10.0,North,10.4,-,N/A,,Overcast,360,2013-05-26 02:53:00
9:14 PM,68.0,53.6,60,29.85,10.0,West,15.0,-,0.00,,Overcast,280,2013-05-26 03:14:00
9:53 PM,64.0,57.0,78,29.86,10.0,West,15.0,-,0.01,Rain,Light Rain,280,2013-05-26 03:53:00
10:08 PM,64.4,57.2,77,29.89,10.0,WNW,8.1,-,0.00,Rain-Thunderstorm,Light Rain,300,2013-05-26 04:08:00
10:23 PM,62.6,57.2,82,29.88,10.0,North,10.4,-,0.00,Rain,Light Rain,350,2013-05-26 04:23:00
10:35 PM,62.6,57.2,82,29.87,10.0,North,11.5,-,0.00,Thunderstorm,Scattered Clouds,10,2013-05-26 04:35:00
10:50 PM,62.6,57.2,82,29.87,10.0,North,12.7,-,0.00,,Clear,350,2013-05-26 04:50:00
10:53 PM,62.1,57.0,84,29.82,10.0,North,12.7,-,0.00,,Clear,350,2013-05-26 04:53:00
11:53 PM,60.1,55.0,83,29.84,10.0,NNE,19.6,-,0.01,,Mostly Cloudy,30,2013-05-26 05:53:00